Location: Bannatyne
(13.0833°N, 59.5333°W)
Time: 05:04:26
(UTC+00:00)

S-56A Canister/Altair - All Passes

Search period start: 24 January 2020 00:00
Search period end: 03 February 2020 00:00
Orbit: 634 x 2498 km, 38.9° (Epoch: 23 January)

Date Brightness Start Highest point End Pass type
(mag) Time Alt. Az. Time Alt. Az. Time Alt. Az.
24 Jan - 05:54:28 10° N 05:57:48 18° NE 06:01:43 10° ENE visible
24 Jan - 07:56:07 10° WNW 08:01:37 69° SW 08:09:50 10° SE visible
24 Jan - 10:03:02 10° WSW 10:07:05 15° SSW 10:11:56 10° S visible
24 Jan - 18:48:33 10° S 18:55:26 16° SE 19:01:16 10° ESE daylight
24 Jan - 20:50:39 10° SW 21:02:00 59° SE 21:09:27 10° ENE daylight
24 Jan - 22:58:36 10° W 23:06:34 34° NW 23:12:11 10° NNE visible
25 Jan - 05:22:46 10° N 05:25:06 13° NE 05:27:39 10° ENE night (unlit)
25 Jan - 07:23:42 10° NW 07:28:54 84° SW 07:36:31 10° SE visible
25 Jan - 09:29:44 10° WSW 09:33:59 16° SSW 09:39:15 10° S visible
25 Jan - 18:16:00 10° S 18:21:59 14° SE 18:27:14 10° ESE daylight
25 Jan - 20:17:06 10° SSW 20:28:53 52° SE 20:36:48 10° ENE daylight
25 Jan - 22:24:33 10° WSW 22:33:46 42° NW 22:40:00 10° NNE visible
26 Jan - 06:51:20 10° NW 06:56:15 79° NE 07:03:12 10° SE visible
26 Jan - 08:56:38 10° WSW 09:00:59 18° SW 09:06:29 10° S visible
26 Jan - 17:43:55 10° SSE 17:48:27 12° SE 17:52:37 10° SE daylight
26 Jan - 19:43:37 10° SSW 19:55:41 46° SE 20:04:03 10° ENE daylight
26 Jan - 21:50:32 10° WSW 22:00:54 52° NW 22:07:44 10° NE daylight
27 Jan - 00:04:44 10° NW 00:05:43 10° NNW 00:06:40 10° NNW visible
27 Jan - 06:19:00 10° NW 06:23:39 62° NE 06:29:56 10° ESE visible
27 Jan - 08:23:41 10° W 08:28:03 21° SW 08:33:40 10° S visible
27 Jan - 17:13:27 10° SSE 17:14:50 10° SE 17:16:11 10° SE daylight
27 Jan - 19:10:09 10° SSW 19:22:23 41° SE 19:31:10 10° ENE daylight
27 Jan - 21:16:33 10° WSW 21:27:57 62° NW 21:35:24 10° NE daylight
27 Jan - 23:28:54 10° WNW 23:32:47 14° NNW 23:36:05 10° N visible
28 Jan - 05:46:42 10° NW 05:51:05 47° NE 05:56:40 10° ESE night (unlit)
28 Jan - 07:50:50 10° W 07:55:11 24° SW 08:00:51 10° SSE visible
28 Jan - 18:36:47 10° SSW 18:49:01 37° SE 18:58:09 10° E daylight
28 Jan - 20:42:35 10° WSW 20:54:56 73° NW 21:03:00 10° NE daylight
28 Jan - 22:54:03 10° WNW 22:59:50 18° NW 23:04:25 10° N visible
29 Jan - 05:14:25 10° NNW 05:18:33 35° NE 05:23:25 10° ESE night (unlit)
29 Jan - 07:18:05 10° W 07:22:24 27° SW 07:28:03 10° SSE visible
29 Jan - 18:03:30 10° SSW 18:15:34 33° SE 18:24:59 10° E daylight
29 Jan - 20:08:41 10° SW 20:21:49 83° NW 20:30:29 10° NE daylight
29 Jan - 22:19:25 10° W 22:26:52 23° NW 22:32:28 10° NNE visible
30 Jan - 04:42:11 10° NNW 04:45:58 27° NE 04:50:10 10° E night (unlit)
30 Jan - 06:45:22 10° WNW 06:49:41 32° SW 06:55:15 10° SSE visible
30 Jan - 17:30:20 10° SSW 17:42:05 29° SE 17:51:38 10° E daylight
30 Jan - 19:34:51 10° SW 19:48:36 87° SE 19:57:54 10° NE daylight
30 Jan - 21:44:53 10° W 21:53:51 28° NW 22:00:22 10° NNE daylight
31 Jan - 04:09:57 10° NNW 04:13:22 21° NE 04:16:55 10° E night (unlit)
31 Jan - 06:12:43 10° WNW 06:17:02 39° SW 06:22:27 10° SSE night (unlit)
31 Jan - 16:57:19 10° S 17:08:31 26° SE 17:18:04 10° E daylight
31 Jan - 19:01:05 10° SW 19:15:18 78° SE 19:25:13 10° NE daylight
31 Jan - 21:10:26 10° W 21:20:48 34° NW 21:28:09 10° NNE daylight
01 Feb - 03:37:46 10° N 03:40:42 17° NNE 03:43:37 10° ENE night (unlit)
01 Feb - 05:40:07 10° WNW 05:44:26 50° SW 05:49:41 10° SE night (unlit)
01 Feb - 16:24:28 10° S 16:34:56 22° SE 16:44:13 10° E daylight
01 Feb - 18:27:24 10° SW 18:41:54 69° SE 18:52:25 10° ENE daylight
01 Feb - 20:36:03 10° WSW 20:47:41 41° NW 20:55:50 10° NNE daylight
01 Feb - 22:51:49 10° NW 22:53:50 11° NNW 22:55:41 10° N visible
02 Feb - 03:05:36 10° N 03:07:57 14° NNE 03:10:15 10° ENE night (unlit)
02 Feb - 05:07:31 10° WNW 05:11:54 65° SW 05:16:56 10° SE night (unlit)
02 Feb - 15:51:52 10° S 16:01:19 19° SE 16:10:02 10° E daylight
02 Feb - 17:53:50 10° SW 18:08:27 62° SE 18:19:31 10° ENE daylight
02 Feb - 20:01:46 10° WSW 20:14:28 48° NW 20:23:24 10° NE daylight
02 Feb - 22:16:02 10° NW 22:20:39 14° NNW 22:24:35 10° N visible
